Location: Lawrence
(38.9720°N, 95.2350°W)
Time: 09:16:51
(UTC-05:00)

JAS-1B - Visible Passes

Search period start: 29 May 2015 00:00
Search period end: 08 June 2015 00:00
Orbit: 912 x 1743 km, 99.1° (Epoch: 29 May)

Date Brightness Start Highest point End Pass type
(mag) Time Alt. Az. Time Alt. Az. Time Alt. Az.
29 May 8.3 01:14:29 10° N 01:24:18 66° WNW 01:27:42 43° SW visible
29 May 9.9 03:07:16 10° NNW 03:13:02 17° NW 03:18:08 10° W visible
29 May 8.5 23:43:30 10° NNE 23:52:34 41° E 23:54:51 37° ESE visible
30 May 8.6 01:33:44 10° N 01:43:13 52° WNW 01:47:07 34° WSW visible
30 May 10.0 03:27:39 10° NNW 03:31:33 13° NW 03:34:46 10° WNW visible
31 May 8.2 00:02:19 10° NNE 00:11:54 54° E 00:14:16 45° SE visible
31 May 8.9 01:53:05 10° N 02:02:05 41° WNW 02:06:32 26° WSW visible
31 May 9.6 22:34:49 10° NE 22:38:26 13° ENE 22:41:25 12° E visible
01 Jun 8.0 00:21:16 10° NNE 00:31:07 69° E 00:33:40 51° SSE visible
01 Jun 9.2 02:12:31 10° N 02:20:51 32° WNW 02:25:56 19° WSW visible
01 Jun 9.3 22:52:10 10° NE 22:58:08 19° E 23:00:48 17° ESE visible
02 Jun 8.0 00:40:19 10° NNE 00:50:15 87° ESE 00:53:05 52° S visible
02 Jun 9.5 02:32:04 10° N 02:39:33 25° WNW 02:45:20 13° W visible
02 Jun 9.0 23:10:19 10° NE 23:17:43 26° E 23:20:13 23° ESE visible
03 Jun 8.1 00:59:27 10° N 01:09:16 75° WNW 01:12:28 46° SW visible
03 Jun 9.8 02:51:49 10° NNW 02:58:11 19° NW 03:03:49 10° W visible
03 Jun 8.7 23:28:48 10° NNE 23:37:14 34° E 23:39:35 31° ESE visible
04 Jun 8.4 01:18:39 10° N 01:28:13 59° WNW 01:31:51 37° SW visible
04 Jun 9.9 03:11:54 10° NNW 03:16:44 14° NW 03:20:52 10° WNW visible
04 Jun 8.3 23:47:31 10° NNE 23:56:37 45° E 23:58:58 39° SE visible
05 Jun 8.7 01:37:58 10° N 01:47:07 46° WNW 01:51:15 29° WSW visible
05 Jun 10.2 03:33:07 10° NNW 03:35:12 11° NW 03:36:37 10° NW visible
06 Jun 8.1 00:06:24 10° NNE 00:15:54 59° E 00:18:21 47° SSE visible
06 Jun 9.0 01:57:22 10° N 02:05:55 36° WNW 02:10:37 22° WSW visible
06 Jun 9.4 22:38:18 10° NE 22:42:32 14° E 22:45:28 13° E visible
07 Jun 7.9 00:25:23 10° NNE 00:35:05 76° ESE 00:37:43 51° S visible
07 Jun 9.4 02:16:52 10° N 02:24:38 28° WNW 02:29:58 15° WSW visible
07 Jun 9.1 22:55:58 10° NE 23:02:12 20° E 23:04:49 18° ESE visible
